Regional Weather Roundup
Issued by NWS Nashville, TN

Current Version | Previous Version | Text Only | Print | Product List | Glossary Off
Versions: 1 2 3 4 5 6 7 8 9 10 11 12 13 14 15 16 17 18 19 20 21 22 23 24 25 26 27 28 29 30 31 32 33 34 35 36 37 38 39 40 41 42 43 44 45 46 47 48 49 50

000
ASUS44 KOHX 180515
RWROHX
MIDDLE TENNESSEE HOURLY WEATHER ROUNDUP
NATIONAL WEATHER SERVICE NASHVILLE TN
1200 AM CDT FRI APR 18 2014

NOTE: "FAIR" INDICATES FEW OR NO CLOUDS BELOW 12,000 FEET WITH
NO SIGNIFICANT WEATHER AND/OR OBSTRUCTIONS TO VISIBILITY.

* THESE REPORTS ARE NOT UNDER NWS QUALITY CONTROL AND MAY NOT
  REPORT WEATHER SUCH AS PRECIPITATION AND FOG.


TNZ005>011-023>034-057-059-062>066-078-080-180600
...NORTHERN MIDDLE TENNESSEE...

CITY           SKY/WX    TMP DP  RH WIND       PRES   REMARKS
BAXTER*          N/A     55  37  50 CALM        N/A
CASTALIAN SPRG   N/A     46  41  81 CALM        N/A
CLARKSVILLE    CLOUDY    53  38  56 CALM      30.25F
COLUMBIA       CLOUDY    54  48  82 CALM      30.24S
CROSSVILLE     CLOUDY    52  38  58 CALM      30.30F
GALLATIN         N/A     49  42  76 CALM      30.27F
DICKSON        CLOUDY    54  36  50 CALM      30.25F
JOELTON*         N/A     50  41  71 CALM        N/A
LIVINGSTON     CLOUDY    55  37  50 S6        30.28F
NASHVILLE      CLOUDY    53  42  66 CALM      30.26F
PORTLAND       CLOUDY    48  37  66 S5        30.26S
SMYRNA         CLOUDY    49  44  83 CALM      30.28S
SPARTA         CLEAR     52  41  66 CALM      30.27S
SPRINGFIELD*     N/A     52  43  71 MISG        N/A
$$
TNZ056-058-060-061-075>077-079-093>097-180600
...SOUTHERN MIDDLE TENNESSEE...

CITY           SKY/WX    TMP DP  RH WIND       PRES   REMARKS
BELLEVUE*        N/A     52  45  76 CALM        N/A
CULLEOKA*        N/A     50  43  76 CALM        N/A
FAYETTEVILLE   CLOUDY    55  42  61 SE8       30.27R
LEWISBURG      CLOUDY    49  44  83 CALM      30.26S
MANCHESTER*      N/A     55  43  62 CALM        N/A
MCMINNVILLE      N/A     57  40  53 CALM      30.28F
MOUNT PLEASANT   N/A     54  46  76 CALM        N/A
MURFREESBORO   CLOUDY    53  43  69 CALM      30.26F
SHELBYVILLE    CLOUDY    54  43  66 SE3       30.28S
SPRING HILL*     N/A     52  43  71 CALM        N/A
TULLAHOMA      CLEAR     55  39  54 SE3       30.29R
WINCHESTER     CLEAR     55  39  54 SE14      30.28R
$$


...KEY TO REMARKS...
VSB - VISIBILITY IN MILES
WCI - WIND CHILL INDEX
HX  - HEAT INDEX




USA.gov is the U.S. government's official web portal to all federal, state and local government web resources and services.